Home > Weather > Friesoythe > Past weeks

Flag for Germany Weather for the Past 2 Weeks in Friesoythe, Lower Saxony, Germany

Now
43 °F

Sprinkles. Broken clouds.


Feels Like: 38 °F
Forecast: 37 / 44 °F
Wind: 8 mph from Southwest

Location: Meppen-Mil

Current Time: Feb 10, 2016 at 5:06:14 PM

Latest Report: Feb 10, 2016 at 4:20 PM


Visibility: N/A

Pressure: 29.27 "Hg

Humidity: 87%

Dew point: 39 °F

Location of FriesoytheLocation

Historic Weather in Friesoythe — Graph

°F

Friesoythe Temperature Yesterday

Maximum temperature yesterday: 45 °F (at 12:20 AM)
Minimum temperature yesterday: 34 °F (at 8:20 PM)
Average temperature yesterday: 42 °F

High & Low Weather Summary for the Past Weeks

 TemperatureHumidityPressure
High54 °F (Jan 27, 6:20 PM)100% (Feb 1, 12:20 AM)30.24 "Hg (Feb 1, 12:20 AM)
Low34 °F (Feb 9, 8:20 PM)54% (Feb 2, 12:20 PM)28.82 "Hg (Feb 9, 6:20 PM)
Average45 °F79%29.75 "Hg
* Reported Jan 26 3:20 PM — Feb 10 3:20 PM, Friesoythe, Weather by CustomWeather, © 2016

Note: Actual official high and low records may vary slightly from our data, if they occured in-between our weather recording intervals... More about our weather records

Advertising

Friesoythe Weather History for the Previous 24 Hours

 ConditionsComfort  
Time TempWeatherWind HumidityBarometerVisibility
3:20 PM
Wed, Feb 10
43 °FSprinkles. Broken clouds.8 mph81%29.24 "HgN/A
2:20 PM43 °FBroken clouds.6 mph81%29.24 "HgN/A
1:20 PM41 °FDrizzle. Partly sunny.8 mph87%29.24 "HgN/A
12:20 PM41 °FBroken clouds.9 mph87%29.24 "HgN/A
11:20 AM37 °FDrizzle. Broken clouds.8 mph93%29.21 "HgN/A
10:20 AM37 °FLight rain. Broken clouds.8 mph87%29.21 "Hg6 mi
10:02 AM37 °FBroken clouds.8 mph87%29.21 "HgN/A
9:20 AM37 °FPartly sunny.7 mph87%29.18 "HgN/A
8:20 AM37 °FPassing clouds.7 mph87%29.18 "HgN/A
7:20 AM37 °FPassing clouds.8 mph87%29.15 "HgN/A
6:20 AM37 °FPassing clouds.8 mph87%29.15 "HgN/A
5:20 AM37 °FChilly.9 mph87%29.15 "HgN/A
4:20 AM36 °FChilly.8 mph87%29.15 "HgN/A
3:20 AM36 °FChilly.8 mph93%29.15 "HgN/A
2:20 AM37 °FChilly.8 mph87%29.15 "HgN/A
1:20 AM36 °FChilly.5 mph93%29.12 "HgN/A
12:20 AM37 °FChilly.8 mph87%29.12 "HgN/A
11:20 PM
Tue, Feb 9
37 °FChilly.7 mph93%29.09 "HgN/A
10:20 PM37 °FChilly.6 mph93%29.03 "HgN/A
9:20 PM36 °FChilly.6 mph93%29.00 "HgN/A
8:20 PM34 °FChilly.7 mph93%28.94 "Hg1 mi
7:20 PM37 °FChilly.7 mph93%28.85 "Hg2 mi
6:20 PM36 °FChilly.8 mph87%28.82 "Hg2 mi
5:20 PM37 °FChilly.8 mph87%28.85 "Hg3 mi
Weather by CustomWeather, © 2016

See weather overviewHow to use our weather pages